Weather in Ulytau

Kazakhstan     48°39′17″N   67°00′33″E
temp.,
°C
wind,
m/s
gust,
m/s
humid.,
%
clouds,
%
prec.,
mm/h
press.,
hPa
HPBL,
m
15 april, thu
thu1500:00+8e615590 0.0 1028276
03:00+6e614640 0.0 1027240
06:00+5e614655 0.0 1027219
09:00+8e713540 0.0 1026345
12:00+14e911330 0.0 1024663
15:00+17e89250 0.0 10221129
18:00+17e88260 0.0 10211334
21:00+12ene512440 0.0 1021220
16 april, fri
fri1600:00+10e513500 0.0 1020229
03:00+8e512540 0.0 1019185
06:00+7e46540 0.0 101963
09:00+11ese46440 0.0 1018149
12:00+16ese452811 0.0 1017550
15:00+19ese332189 0.0 10162031
18:00+18e222098 0.0 10152400
21:00+14ese333218 0.0 101624
17 april, sat
sat1700:00+11se114317 0.0 101610
03:00+10se11456 0.0 101610
06:00+8se11495 0.0 101710
09:00+13ese224122 0.0 1018106
12:00+16sse12310 0.0 10181135
15:00+18wnw23245 0.0 10172542
18:00+19wnw33235 0.0 10172593
21:00+14n224012 0.0 101819
18 april, sun
sun1800:00+11ese4105930 0.0 1019249
03:00+9se466947 0.0 1018104
06:00+8se457081 0.0 101867
09:00+12sw11546 0.0 1017148
12:00+16w463522 0.0 10161257
15:00+18wnw67305 0.0 10151954
18:00+17nw78320 0.0 10141963
21:00+12nnw36490 0.0 1016112
19 april, mon
mon1900:00+10nne22560 0.0 101614
03:00+8e116232 0.0 101510
06:00+7e4571100 0.0 101792
09:00+7e6777100 0.0 1018413
12:00+9e7666100 0.0 1018804
15:00+8ene774893 0.1 10201160
18:00+7ne874261 0.1 10201220
21:00+3ene910425 0.0 1023863